Flag for Germany Weather past 2 weeks in Warendorf, North Rhine-Westphalia, Germany

Now
63 °F

Passing clouds.


Feels Like: 63 °F
Forecast: 51 / 78 °F
Wind: 6 mph from East

Location: Muenster / Osnabrueck

Current Time: Aug 1, 2015 at 10:47:43 AM

Latest Report: Aug 1, 2015 at 10:20 AM


Visibility: N/A

Pressure: 30.01 "Hg

Humidity: 56%

Dew point: 46 °F

Location of WarendorfLocation

Historic Weather in Warendorf — Graph

°F

Warendorf temperature yesterday

Maximum temperature yesterday: 66 °F (at 2:50 PM)
Minimum temperature yesterday: 45 °F (at 5:50 AM)
Average temperature yesterday: 56 °F

Past Weeks' High & Low Weather Summary

 TemperatureHumidityPressure
High90 °F (Jul 17, 4:20 PM)100% (Jul 20, 4:50 AM)30.12 "Hg (Jul 20, 4:50 AM)
Low45 °F (Jul 31, 5:50 AM)27% (Jul 17, 5:20 PM)29.47 "Hg (Jul 25, 7:20 AM)
Average64 °F72%29.85 "Hg
* Reported Jul 17 9:20 AM — Aug 1 9:20 AM, Warendorf, Weather by CustomWeather, © 2015

Note: Actual official high and low records may vary slightly from our data, if they occured in-between our weather recording intervals... More about our weather records

Advertising

Warendorf weather history for previous 24 hours

 ConditionsComfort  
Time TempWeatherWind HumidityBarometerVisibility
9:20 AM
Sat, Aug 1
61 °FPassing clouds.5 mph59%30.01 "HgN/A
8:50 AM59 °FSunny.5 mph68%30.01 "Hg10 mi
8:20 AM57 °FPassing clouds.5 mph67%30.01 "HgN/A
7:50 AM55 °FPassing clouds.3 mph72%30.01 "HgN/A
7:20 AM52 °FSunny.5 mph82%30.01 "Hg10 mi
6:50 AM48 °FSunny.3 mph94%30.01 "Hg10 mi
6:20 AM48 °FClear.3 mph94%30.01 "Hg10 mi
5:50 AM50 °FClear.3 mph88%30.01 "Hg10 mi
5:20 AM50 °FPassing clouds.3 mph88%30.01 "HgN/A
4:50 AM50 °FPassing clouds.3 mph88%30.04 "HgN/A
4:20 AM50 °FPassing clouds.3 mph88%30.04 "HgN/A
3:50 AM50 °FClear.3 mph82%30.04 "Hg10 mi
3:20 AM50 °FPassing clouds.3 mph88%30.04 "HgN/A
2:50 AM52 °FClear.3 mph82%30.04 "Hg10 mi
2:20 AM52 °FPassing clouds.3 mph82%30.04 "HgN/A
1:50 AM50 °FClear.5 mph88%30.04 "Hg10 mi
1:20 AM50 °FPassing clouds.3 mph88%30.07 "HgN/A
12:50 AM50 °FClear.2 mph88%30.07 "Hg10 mi
12:20 AM48 °FClear.2 mph87%30.07 "Hg10 mi
11:50 PM
Fri, Jul 31
50 °FClear.1 mph88%30.07 "Hg10 mi
11:20 PM52 °FClear.1 mph82%30.07 "Hg10 mi
10:50 PM54 °FClear.2 mph77%30.07 "Hg10 mi
10:20 PM54 °FPassing clouds.3 mph77%30.07 "HgN/A
9:50 PM55 °FSunny.2 mph72%30.07 "Hg10 mi
9:20 PM57 °FPassing clouds.3 mph67%30.07 "HgN/A
8:50 PM59 °FPassing clouds.3 mph63%30.07 "HgN/A
8:20 PM63 °FSunny.3 mph49%30.07 "Hg10 mi
7:50 PM63 °FPassing clouds.5 mph49%30.07 "HgN/A
7:20 PM64 °FPassing clouds.7 mph46%30.07 "HgN/A
6:50 PM64 °FPassing clouds.5 mph40%30.07 "HgN/A
6:20 PM64 °FPassing clouds.5 mph46%30.09 "HgN/A
5:50 PM64 °FPassing clouds.6 mph46%30.09 "HgN/A
5:20 PM64 °FPassing clouds.5 mph43%30.09 "HgN/A
4:50 PM64 °FSunny.3 mph40%30.09 "Hg10 mi
4:20 PM64 °FBroken clouds.7 mph46%30.09 "HgN/A
3:50 PM66 °FScattered clouds.6 mph43%30.09 "HgN/A
3:20 PM64 °FScattered clouds.5 mph40%30.09 "HgN/A
2:50 PM66 °FScattered clouds.2 mph46%30.12 "HgN/A
2:20 PM63 °FPartly sunny.8 mph49%30.12 "HgN/A
1:50 PM63 °FPartly sunny.5 mph49%30.12 "HgN/A
1:20 PM61 °FScattered clouds.3 mph52%30.12 "HgN/A
12:50 PM63 °FScattered clouds.5 mph45%30.12 "HgN/A
12:20 PM63 °FPassing clouds.7 mph49%30.12 "HgN/A
11:50 AM59 °FPassing clouds.7 mph59%30.12 "HgN/A
11:20 AM61 °FPassing clouds.7 mph55%30.12 "HgN/A
10:50 AM59 °FPassing clouds.6 mph59%30.12 "HgN/A
10:20 AM59 °FPassing clouds.5 mph59%30.12 "HgN/A
Weather by CustomWeather, © 2015

See weather overviewHow to use our weather pages